{"data":{"norad_id":66443,"epoch":"2026-09-20T23:28:49.473696Z","epoch_age_seconds":51780,"freshness":"FRESH","line1":"1 66443U 25259X   26263.97835039  .00008586  00000+0  32110-3 0  9995","line2":"2 66443  42.9988 251.8466 0000832 251.6644 108.4117 15.27585362 49243","mean_motion":15.27585362,"eccentricity":8.32e-5,"inclination_deg":42.9988,"raan_deg":251.8466,"arg_perigee_deg":251.6644,"mean_anomaly_deg":108.4117,"bstar":0.0003211,"rev_number":4924,"period_min":94.266417826541,"perigee_km":482.46219098229,"apogee_km":483.603889677,"semimajor_km":6861.1700403296,"source":"CELESTRAK","updated_at":"2026-09-21T09:00:35.910462Z"}}